Content
SEND FEEDBACK

Daily
Averages
Monthly
Summary
United States of America

ACHANG BAY, GUAM


Home > North America > United States > Guam
Elevation: 30 feet     Latitude: 13 16N     Longitude: 144 45E

WEATHER
 
SELECT A DAY
Number of Records: 342,038;   Date Range: 1/1/95 - 7/29/14
 
SHARE

PRINT THIS DATA

[ ← Previous Day ]
WEATHER ALMANAC - NOVEMBER 8, 2013
[ Next Day → ]
[ °C ]   °F
Weather ElementAverageHighLow
Temperature78.5 °F84.2 °F (12:53 pm) (5:58 am)
Dewpoint75.3 °F78.8 °F (12:53 pm) (7:00 pm)
Humidity90.1 %100 % (6:19 am)79 % (1:23 pm)
Barometer29.89 in29.95 in (8:08 am)29.83 in (3:55 am)
Wind Speed17.5 mph23 mph (8:08 am)
Wind Gust29.9 mph (11:54 pm)
Weather ElementAverage
Visibility10 mi
Wind DirectionNE (41.8 °)

Weather ElementTotal
Precipitation---
Heating Degree Days22.9 (Base 65)
Averaged from 79 records on November 8, 2013
WEATHER CONDITIONS BREAKOUT
WIND DIRECTION BREAKOUT
WEATHER BY HOUR - NOVEMBER 8, 2013
[ °C ]   °F
Local TimeTemperatureDewpointHumidityBarometerVisibilityWind DirectionWind SpeedGust SpeedPrecipitationEventsConditions
1:55 AM76.1 °F73.4 °F91 %29.85 in10.0 miENE (60°)9.2 mphClear
2:55 AM76.5 °F75.0 °F95 %29.84 in10.0 miNE (40°)6.9 mphPartly Cloudy
3:55 AM77.9 °F74.7 °F90 %29.83 in10.0 miNE (40°)12.7 mphMostly Cloudy
4:55 AM76.6 °F75.2 °F95 %29.85 in10.0 miNNE (30°)12.7 mphPartly Cloudy
5:04 AM77.0 °F75.2 °F94 %29.85 in10.0 miNNE (30°)11.5 mphMostly Cloudy
5:14 AM77.0 °F75.2 °F94 %29.86 in10.0 miNNE (20°)11.5 mphMostly Cloudy
5:58 AM0.0 °F0.0 °FNNE (30°)18.4 mph
6:03 AM75.2 °F73.4 °F94 %29.91 in10.0 miNorth (10°)16.1 mphMostly Cloudy
6:14 AM75.2 °F73.4 °F94 %29.91 in10.0 miNNE (20°)13.8 mph25.3 mphRainLight Rain
6:19 AM75.2 °F75.2 °F100 %29.91 in10.0 miNorth (10°)15.0 mphRainLight Rain
6:24 AM75.2 °F75.2 °F100 %29.91 in10.0 miNorth (10°)16.1 mph20.7 mphRainLight Rain
6:28 AM75.2 °F75.2 °F100 %29.92 in10.0 miNorth (10°)16.1 mph20.7 mphMostly Cloudy
6:33 AM75.2 °F73.4 °F94 %29.92 in10.0 miNorth (10°)16.1 mphMostly Cloudy
6:58 AM74.8 °F74.3 °F98 %29.89 in10.0 miNNE (20°)12.7 mph0.00 inMostly Cloudy
7:03 AM75.2 °F75.2 °F100 %29.92 in10.0 miNE (40°)12.7 mphMostly Cloudy
7:13 AM75.2 °F75.2 °F100 %29.93 in10.0 miNE (50°)11.5 mphScattered Clouds
7:23 AM75.2 °F75.2 °F100 %29.93 in10.0 miNE (50°)10.4 mphMostly Cloudy
7:28 AM75.2 °F75.2 °F100 %29.93 in10.0 miNE (40°)12.7 mphMostly Cloudy
7:33 AM75.2 °F75.2 °F100 %29.93 in10.0 miNE (40°)13.8 mphMostly Cloudy
7:38 AM75.2 °F75.2 °F100 %29.93 in10.0 miNE (40°)12.7 mphMostly Cloudy
7:48 AM77.0 °F75.2 °F94 %29.94 in10.0 miNE (40°)21.9 mph25.3 mphMostly Cloudy
7:58 AM76.5 °F73.9 °F92 %29.91 in10.0 miNE (40°)20.7 mphMostly Cloudy
8:08 AM77.0 °F75.2 °F94 %29.95 in10.0 miNE (40°)23.0 mphScattered Clouds
8:13 AM77.0 °F75.2 °F94 %29.95 in10.0 miNE (40°)20.7 mphMostly Cloudy
8:23 AM75.2 °F73.4 °F94 %29.94 in10.0 miNE (40°)17.3 mphScattered Clouds
8:48 AM77.0 °F75.2 °F94 %29.95 in10.0 miNE (40°)19.6 mphMostly Cloudy
8:58 AM77.0 °F75.6 °F95 %29.92 in10.0 miNE (40°)21.9 mphMostly Cloudy
9:08 AM77.0 °F75.2 °F94 %29.95 in10.0 miNNE (30°)16.1 mphMostly Cloudy
9:13 AM77.0 °F75.2 °F94 %29.95 in10.0 miNNE (30°)16.1 mphMostly Cloudy
9:23 AM77.0 °F75.2 °F94 %29.94 in10.0 miNE (40°)16.1 mphScattered Clouds
9:38 AM78.8 °F75.2 °F89 %29.93 in10.0 miNNE (30°)18.4 mphMostly Cloudy
9:58 AM78.6 °F75.0 °F89 %29.91 in10.0 miNNE (30°)20.7 mphMostly Cloudy
10:13 AM78.8 °F75.2 °F89 %29.93 in10.0 miNE (40°)19.6 mphScattered Clouds
10:53 AM80.6 °F75.2 °F84 %29.93 in10.0 miNE (40°)19.6 mph27.6 mphMostly Cloudy
10:58 AM80.2 °F76.1 °F87 %29.93 in10.0 miNE (40°)21.9 mph27.6 mphMostly Cloudy
11:13 AM82.4 °F77.0 °F84 %29.92 in10.0 miNE (40°)19.6 mphScattered Clouds
11:58 AM83.1 °F77.7 °F84 %29.90 in10.0 miNE (40°)21.9 mphMostly Cloudy
12:03 PM82.4 °F77.0 °F84 %29.90 in10.0 miNE (40°)20.7 mphMostly Cloudy
12:13 PM82.4 °F77.0 °F84 %29.89 in10.0 miNE (40°)20.7 mphMostly Cloudy
12:53 PM84.2 °F78.8 °F84 %29.88 in10.0 miNE (40°)20.7 mphMostly Cloudy
12:58 PM83.8 °F78.1 °F83 %29.88 in10.0 miNE (40°)19.6 mphMostly Cloudy
1:18 PM84.2 °F78.8 °F84 %29.87 in10.0 miNE (40°)21.9 mphMostly Cloudy
1:23 PM84.2 °F77.0 °F79 %29.87 in10.0 miNE (40°)20.7 mphMostly Cloudy
1:28 PM84.2 °F78.8 °F84 %29.87 in10.0 miNNE (30°)18.4 mphMostly Cloudy
1:58 PM83.7 °F78.3 °F84 %29.85 in10.0 miNE (40°)19.6 mphMostly Cloudy
2:58 PM84.2 °F77.5 °F80 %29.84 in10.0 miNE (40°)20.7 mphMostly Cloudy
3:08 PM84.2 °F77.0 °F79 %29.84 in10.0 miNE (50°)20.7 mphScattered Clouds
3:58 PM83.5 °F77.2 °F81 %29.85 in10.0 miENE (60°)20.7 mphScattered Clouds
4:58 PM82.2 °F78.1 °F87 %29.85 in10.0 miNE (50°)16.1 mphScattered Clouds
5:08 PM82.4 °F77.0 °F84 %29.85 in10.0 miNE (50°)18.4 mphMostly Cloudy
5:13 PM82.4 °F78.8 °F89 %29.85 in10.0 miNE (50°)17.3 mphMostly Cloudy
5:18 PM82.4 °F77.0 °F84 %29.85 in10.0 miNE (50°)17.3 mphMostly Cloudy
5:23 PM82.4 °F77.0 °F84 %29.86 in10.0 miNE (50°)15.0 mphMostly Cloudy
5:33 PM82.4 °F77.0 °F84 %29.86 in10.0 miNE (50°)18.4 mphMostly Cloudy
5:38 PM82.4 °F77.0 °F84 %29.86 in10.0 miNE (50°)18.4 mphMostly Cloudy
5:43 PM82.4 °F77.0 °F84 %29.86 in10.0 miNE (50°)15.0 mph25.3 mphScattered Clouds
5:58 PM81.3 °F76.3 °F85 %29.83 in10.0 miNE (50°)17.3 mphMostly Cloudy
6:03 PM80.6 °F77.0 °F89 %29.87 in10.0 miNE (50°)16.1 mphScattered Clouds
6:13 PM80.6 °F77.0 °F89 %29.87 in10.0 miNE (50°)15.0 mphMostly Cloudy
6:33 PM82.4 °F77.0 °F84 %29.88 in10.0 miNE (50°)20.7 mphMostly Cloudy
6:58 PM81.1 °F76.6 °F86 %29.86 in10.0 miNE (50°)17.3 mphMostly Cloudy
7:03 PM80.6 °F77.0 °F89 %29.89 in10.0 miENE (60°)18.4 mph25.3 mphScattered Clouds
7:33 PM80.6 °F78.8 °F94 %29.90 in10.0 miENE (60°)17.3 mphMostly Cloudy
7:38 PM80.6 °F78.8 °F94 %29.90 in10.0 miNE (50°)16.1 mphMostly Cloudy
7:43 PM80.6 °F78.8 °F94 %29.90 in10.0 miNE (50°)16.1 mphMostly Cloudy
7:48 PM80.6 °F78.8 °F94 %29.91 in10.0 miNE (50°)18.4 mphScattered Clouds
7:53 PM80.6 °F78.8 °F94 %29.91 in10.0 miENE (60°)18.4 mphMostly Cloudy
7:58 PM80.4 °F77.7 °F91 %29.88 in10.0 miNE (50°)19.6 mphMostly Cloudy
8:03 PM80.6 °F77.0 °F89 %29.91 in10.0 miNE (50°)18.4 mph24.2 mphScattered Clouds
8:58 PM80.4 °F77.0 °F89 %29.89 in10.0 miNE (50°)21.9 mph25.3 mphScattered Clouds
9:03 PM80.6 °F77.0 °F89 %29.92 in10.0 miNE (50°)20.7 mphMostly Cloudy
9:08 PM80.6 °F77.0 °F89 %29.92 in10.0 miNE (50°)20.7 mphMostly Cloudy
9:13 PM80.6 °F77.0 °F89 %29.92 in10.0 miNE (50°)18.4 mphMostly Cloudy
9:18 PM80.6 °F77.0 °F89 %29.92 in10.0 miNE (50°)18.4 mphMostly Cloudy
9:33 PM80.6 °F77.0 °F89 %29.92 in10.0 miNE (50°)17.3 mphScattered Clouds
9:58 PM80.2 °F76.5 °F88 %29.89 in10.0 miENE (60°)16.1 mphPartly Cloudy
10:58 PM79.5 °F76.8 °F91 %29.88 in10.0 miNE (50°)17.3 mphClear
11:54 PM80.6 °F75.2 °F84 %29.90 in10.0 miENE (60°)20.7 mph29.9 mphLight Drizzle
11:58 PM80.1 °F76.3 °F88 %29.87 in10.0 miNE (50°)20.7 mph29.9 mph0.00 inLight Drizzle
Hourly data recorded from PGUA, located miles away from Achang Bay, Guam







STORIES FROM OUR PARTNERS